Flag for Germany Weather past 2 weeks in Friesoythe, Lower Saxony, Germany

Now
61 °F

Refreshingly cool.


Feels Like: 61 °F
Forecast: 49 / 61 °F
Wind: 18 mph from Southwest

Location: Meppen-Mil

Current Time: May 5, 2015 at 7:24:15 PM

Latest Report: May 5, 2015 at 6:20 PM


Visibility: N/A

Pressure: 29.62 "Hg

Humidity: 52%

Dew point: 43 °F

Location of FriesoytheLocation

Historic Weather in Friesoythe — Graph

°F

Friesoythe temperature yesterday

Maximum temperature yesterday: 68 °F (at 5:20 PM)
Minimum temperature yesterday: 52 °F (at 6:20 AM)
Average temperature yesterday: 60 °F

Past Weeks' High & Low Weather Summary

 TemperatureHumidityPressure
High75 °F (May 5, 2:20 PM)100% (Apr 24, 5:20 AM)30.48 "Hg (Apr 24, 5:20 AM)
Low27 °F (Apr 28, 5:20 AM)27% (May 2, 5:20 PM)29.39 "Hg (May 5, 5:20 AM)
Average50 °F71%29.90 "Hg
* Reported Apr 20 5:20 PM — May 5 5:20 PM, Friesoythe, Weather by CustomWeather, © 2015

Note: Actual official high and low records may vary slightly from our data, if they occured in-between our weather recording intervals... More about our weather records

Advertising

Friesoythe weather history for previous 24 hours

 ConditionsComfort  
Time TempWeatherWind HumidityBarometerVisibility
5:20 PM
Tue, May 5
61 °FRefreshingly cool.24 mph59%29.56 "HgN/A
4:20 PM63 °FScattered showers. Broken clouds.18 mph83%29.53 "HgN/A
3:20 PM66 °FStrong thunderstorms. Partly sunny.13 mph73%29.45 "Hg1 mi
2:20 PM75 °FScattered showers. Scattered clouds.18 mph50%29.39 "HgN/A
1:20 PM73 °FScattered showers. Scattered clouds.17 mph53%29.39 "HgN/A
12:20 PM73 °FPassing clouds.16 mph53%29.39 "HgN/A
11:20 AM72 °FScattered showers. Scattered clouds.15 mph57%29.39 "HgN/A
10:20 AM70 °FPartly sunny.14 mph64%29.39 "HgN/A
9:20 AM68 °FPassing clouds.12 mph69%29.39 "HgN/A
8:20 AM64 °FScattered clouds.9 mph78%29.39 "HgN/A
7:20 AM61 °FPartly cloudy.9 mph83%29.39 "HgN/A
6:20 AM57 °FPassing clouds.7 mph94%29.39 "HgN/A
5:20 AM57 °FCool.6 mph94%29.39 "Hg4 mi
4:20 AM57 °FCool.6 mph88%29.45 "Hg3 mi
3:20 AM55 °FCool.7 mph94%29.47 "Hg3 mi
2:20 AM57 °FCool.5 mph77%29.53 "Hg4 mi
1:20 AM61 °FCool.6 mph63%29.56 "Hg6 mi
12:20 AM59 °FCool.6 mph68%29.62 "HgN/A
11:20 PM
Mon, May 4
57 °FCool.3 mph72%29.65 "HgN/A
10:20 PM57 °FCool.3 mph72%29.68 "HgN/A
9:20 PM57 °FCool.2 mph72%29.71 "HgN/A
8:20 PM64 °FMild.5 mph52%29.71 "HgN/A
7:20 PM64 °FMild.6 mph52%29.74 "HgN/A
Weather by CustomWeather, © 2015

See weather overviewHow to use our weather pages